Weather History for Kansas City, MO

Change the Weather History Date:

Sunday, July 21, 2013

  Actual Average Record
Temperature  
Mean Temperature 80 °F -  
Max Temperature 89 °F 87 °F 100 °F (1998)
Min Temperature 73 °F 70 °F 64 °F (2006)
Cooling Degree Days 16    
Growing Degree Days 30 (Base 50)    
Moisture  
Dew Point 68 °F    
Average Humidity 68    
Maximum Humidity 79    
Minimum Humidity 48    
Precipitation  
Precipitation 0.00 in - - ()
Sea Level Pressure  
Sea Level Pressure 29.86 in    
Wind  
Wind Speed 5 mph (SW)    
Max Wind Speed 9 mph    
Max Gust Speed -    
Visibility 10 miles    
Events      
Averages and records for this station are not official NWS values.
T = Trace of Precipitation, MM = Missing Value Source: NWS Daily Summary

Daily Weather History Graph

Daily Weather History Graph

Search for Another Location

Airport:

Trip Planner

Search our weather history database for the weather conditions in past years. The results will help you decide how hot, cold, wet, or windy it might be!

Date:

Astronomy

Jul. 21, 2013 Rise Set
Actual Time 6:09 AM CDT 8:39 PM CDT
Civil Twilight 5:38 AM CDT 9:10 PM CDT
Nautical Twilight 5:00 AM CDT 9:48 PM CDT
Astronomical Twilight 4:18 AM CDT 10:30 PM CDT
Moon 7:38 PM CDT (7/21) 4:56 AM CDT (7/21)
Length of Visible Light 15h 31m
Length of Day
14h 29m
Waxing Gibbous, 98% of the Moon is Illuminated
Jul 21
Waxing Gibbous
Jul 22
Full
Jul 29
Last Quarter
Aug 6
New
Aug 14
First Quarter

Hourly Weather History & Observations

Time (CDT) Temp. Heat Index Dew Point Humidity Pressure Visibility Wind Dir Wind Speed Gust Speed Precip Events Conditions
12:54 AM 79.0 °F - 72.0 °F 79% 29.89 in 10.0 mi Calm Calm - N/A   Mostly Cloudy
1:41 AM 77.0 °F - 69.8 °F 78% 29.91 in 10.0 mi SW 5.8 mph - N/A   Mostly Cloudy
1:54 AM 77.0 °F - 70.0 °F 79% 29.88 in 10.0 mi SW 8.1 mph - N/A   Overcast
2:36 AM 77.0 °F - 69.8 °F 78% 29.90 in 10.0 mi WSW 5.8 mph - N/A   Partly Cloudy
2:54 AM 75.9 °F - 68.0 °F 76% 29.88 in 10.0 mi WSW 3.5 mph - N/A   Clear
3:54 AM 75.0 °F - 68.0 °F 79% 29.86 in 10.0 mi Calm Calm - N/A   Clear
4:54 AM 75.0 °F - 66.9 °F 76% 29.84 in 10.0 mi SSW 5.8 mph - N/A   Clear
5:54 AM 75.0 °F - 66.9 °F 76% 29.85 in 10.0 mi SSW 5.8 mph - N/A   Overcast
6:54 AM 75.0 °F - 66.0 °F 73% 29.86 in 10.0 mi SW 8.1 mph - N/A   Overcast
7:54 AM 73.9 °F - 66.9 °F 79% 29.89 in 10.0 mi SW 4.6 mph - 0.00 in   Mostly Cloudy
8:54 AM 75.0 °F - 68.0 °F 79% 29.89 in 10.0 mi South 5.8 mph - 0.00 in   Scattered Clouds
9:13 AM 75.2 °F - 68.0 °F 78% 29.91 in 10.0 mi South 5.8 mph - N/A   Mostly Cloudy
9:36 AM 75.2 °F - 68.0 °F 78% 29.91 in 10.0 mi SW 8.1 mph - N/A   Mostly Cloudy
9:54 AM 78.1 °F - 69.1 °F 74% 29.89 in 10.0 mi SW 8.1 mph - N/A   Partly Cloudy
10:54 AM 79.0 °F - 68.0 °F 69% 29.89 in 10.0 mi WSW 5.8 mph - N/A   Mostly Cloudy
11:06 AM 80.6 °F 83.2 °F 68.0 °F 65% 29.92 in 10.0 mi West 5.8 mph - N/A   Scattered Clouds
11:39 AM 80.6 °F 83.2 °F 68.0 °F 65% 29.91 in 10.0 mi WSW 6.9 mph - N/A   Mostly Cloudy
11:50 AM 80.6 °F 83.2 °F 68.0 °F 65% 29.91 in 10.0 mi West 5.8 mph - N/A   Scattered Clouds
11:54 AM 80.1 °F 82.7 °F 68.0 °F 67% 29.88 in 10.0 mi WSW 5.8 mph - N/A   Mostly Cloudy
12:54 PM 81.0 °F 84.4 °F 70.0 °F 69% 29.86 in 10.0 mi WSW 6.9 mph - N/A   Clear
1:54 PM 82.0 °F 84.9 °F 68.0 °F 62% 29.83 in 10.0 mi South 8.1 mph - N/A   Overcast
2:54 PM 84.9 °F 87.6 °F 66.9 °F 55% 29.82 in 10.0 mi Calm Calm - N/A   Partly Cloudy
3:54 PM 84.9 °F 87.1 °F 66.0 °F 53% 29.81 in 10.0 mi Calm Calm - N/A   Mostly Cloudy
4:54 PM 88.0 °F 90.3 °F 66.0 °F 48% 29.79 in 10.0 mi Variable 3.5 mph - N/A   Scattered Clouds
5:54 PM 88.0 °F 90.3 °F 66.0 °F 48% 29.78 in 10.0 mi Calm Calm - N/A   Mostly Cloudy
6:54 PM 87.1 °F 89.2 °F 66.0 °F 49% 29.78 in 10.0 mi SSW 6.9 mph - N/A   Overcast
7:54 PM 86.0 °F 88.2 °F 66.0 °F 51% 29.78 in 10.0 mi SSW 4.6 mph - N/A   Overcast
8:54 PM 84.0 °F 86.3 °F 66.0 °F 55% 29.79 in 10.0 mi SSW 9.2 mph - N/A   Mostly Cloudy
9:54 PM 82.0 °F 84.5 °F 66.9 °F 60% 29.81 in 10.0 mi South 4.6 mph - N/A   Clear
10:54 PM 80.1 °F 82.3 °F 66.9 °F 64% 29.81 in 10.0 mi South 6.9 mph - N/A   Clear
11:54 PM 79.0 °F - 68.0 °F 69% 29.82 in 10.0 mi SW 6.9 mph - N/A   Clear